Погода в Джикимде

Погода в Джикимде : погода сейчас, прогноз погоды и архив. Всё, что Вы хотите узнать о погоде в Джикимде!

Поиск расширенной информации на нашем сайте:

Другие новости

Новости СМИ2

Главная страница сайта

Новости сайта

02.10.2013

Напоминаем, что на нашем новом сайте вы можете получить высокодетализированные прогнозы погоды по пунктам России, СНГ и мира (включающие важные для авиации метеовеличины, такие как направление и скорость ветра, видимость, явления погоды, количество и форма облачности, нижняя и верхняя граница облачности), а также ознакомиться с разнообразными материалами по авиационной метеорологии и подборкой полезных ссылок на эту тему.

Сайт Метеоцентр.Азия посвящён разработке технологий оптимизации авиаметеорологического обслуживания, включая проектирование и перспективное создание нескольких автоматизированных авиаметеорологических систем:
- система выпуска высокодетальных прогностических карт явлений погоды для нижнего воздушного пространства по России и ближнему зарубежью;
- система верификации прогнозов TAF (выпускаемых синоптиками официальных АМСГ РФ и ближнего зарубежья) и AUTOTAF (выпускаемых сайтом Метеоцентр.Азия) - выявление ошибок, онлайн-сопоставление с фактической погодой METAR, автоматическое внесение коррективов в прогнозы при резком отклонении фактической погоды от прогноза, подсчёт оправдываемости прогнозов по элементам и в целом;
- система обработки, анализа и отображения авиаметеорологической информации для применения провайдерами метеорологической информации.


Погода в Джикимде - сегодня

Время (UTC), дата Ветер
(°,м/с) 
Видим.   Явления Облачность Т
(°С)
Тd
(°С)
f(%) Тe
(°С)
Pmin
(гПа)
dP
(гПа)
Po
(мм)
O2
(г/м3)
Тmin Tmax R s Состояние
почвы
12 22.04.17 020 (С) 2{10}  20000 м    10/10 600 м 
[Sc]
+4.2 -7.3 43 +4  1018.4  2.2  748  297    +6.7       
15 22.04.17 060 (СВ) 20000 м    10/0 
[Sc]
+3.4 -9.7 38 +3  1019.5  0.9  748  299           
18 22.04.17 050 (СВ) 20000 м    10/10 600 м 
[Sc]
+2.6 -9.1 42 +2  1020.4  0.9  749  300           
21 22.04.17 080 (В) 0200 м  ливневой снег  10/10 600 м кучево-дожд. 
[Cb cap]
-0.9 -2.4 90 -2  1022.3  1.5  750  303           
00 23.04.17 070 (В) 20000 м  {ливн. осадки}  10/10 600 м кучево-дожд. 
[Cb cap]
-0.6 -4.4 75 -1  1022.8  0.5  750  304  -1.3    13  равномерный
сухой снег
100% 
03 23.04.17 340 (С) 20000 м    10/10 600 м 
[Sc]
+2.6 -5.5 55 +2  1022.4  750  300           
06 23.04.17 020 (С) 1{10}  20000 м    10/10 600 м 
[Sc]
+5 -5.2 48 +6  1021.3  -0.6  750  297           
09 23.04.17 020 (С) 2{10}  20000 м    9/4 1000 м верхняя 
[Sc|Ci fib]
+6.9 -5.9 40 +7  1021.4  -0.1  750  295           
12 23.04.17 тихо ()   20000 м    8/3 600 м верхняя 
[Cu Sc|Cs]
+5.2 -7.5 39 +5  1022.9  1.3  751  298    +7.2       
15 23.04.17 тихо ()   20000 м    10/5 600 м 
[Sc]
+0.4 -4.6 69 1024.5  1.7  752  303           
18 23.04.17 тихо ()   20000 м    10/8 600 м верхняя 
[Sc|Cs]
-0.8 -3.7 81 -1  1025.8  753  305           
21 23.04.17 090 (В) 20000 м    10/8 600 м верхняя 
[Sc|Cs]
-3.3 -7.6 72 -3  1026.3  0.4  753  308           
00 24.04.17 030 (СВ) 20000 м    10/9 600 м верхняя 
[Sc|Cs]
+3.5 -9.5 38 +2  1026.7  0.9  754  301  -3.5      11  мокрый или
старый снег
50-90% 
03 24.04.17 030 (СВ) 3{10}  20000 м    10/10 600 м 
[Sc]
+6.3 -8.9 33 +5  1026.7  0.3  754  298           
06 24.04.17 340 (С) 20000 м    6/0 верхняя 
[Cc]
+9.1 -8.3 28 +9  1025.8  -0.8  753  294           
09 24.04.17 340 (С) 20000 м    8/8 600 м 
[Sc]
+8.9 -6 34 +10  1025.7  -0.1  753  294           
12 24.04.17 340 (С) 20000 м    8/1 600 м верхняя 
[Sc|Cs]
+5.5 -6.9 40 +5  1026  753  298    +10.3       
15 24.04.17 тихо ()   20000 м    ясно 
-2.3 -7.4 68 -2  1027.8  1.2  754  307           
18 24.04.17 тихо ()   20000 м    ясно 
-3.3 -7.3 74 -3  1028.9  1.1  755  309           
21 24.04.17 тихо ()   20000 м    ясно 
-8.9 -10.2 90 -9  1029.6  0.1  755  315           
00 25.04.17 260 (З) 20000 м    10/0 верхняя 
[Cs]
-1.8 -7.5 65 -1  1028.6  0.3  755  307  -8.9      мокрый или
старый снег
50-90% 
03 25.04.17 020 (С) 20000 м    4/0 верхняя 
[Cc]
+6.6 -2.4 53 +8  1025.5  -2.4  753  296           
06 25.04.17 240 (ЮЗ) 2{10}  20000 м    9/4 600 м верхняя 
[Cu hum|Cs]
+11 -5 32 +11  1023.3  -1.8  752  292           
09 25.04.17 тихо () {10}  20000 м    9/9 600 м 
[Sc]
+9.7 -8.2 27 +10  1022.1  -1.2  751  293           
12 25.04.17 тихо ()   20000 м    10/10 600 м 
[Sc]
+7.5 -5.7 39 +8  1022  -0.4  750  295    +11.4       
Время (UTC), дата Ветер
(°,м/с) 
Видим.   Явления Облачность Т
(°С)
Тd
(°С)
f(%) Тe
(°С)
Pmin
(гПа)
dP
(гПа)
Po
(мм)
O2
(г/м3)
Тmin Tmax R s Состояние
почвы

Для получения пояснительной информации подведите курсор к названию столбца.

ПОГОДА в Джикимде - архив

Всё, что Вы хотите узнать о погоде в Джикимде - удобно и подробно!

Выберите нужную дату (начиная с 1 января 2015* года) и нажмите кнопку "Найти".
Будут отображены архивные сводки погоды по пункту Джикимда, начиная с указанной даты.


Отображать данные в формате CSV (для использования в таблицах Excel)


Внимание! Наш архив погоды предназначен исключительно для личного некоммерческого использования в познавательных целях. Если Вам необходимы официальные справки о состоянии погоды (для производственных, юридических, коммерческих и т.п. целей), обращайтесь в органы Росгидромета.

*Примечание: данная дата относится к архиву по метеостанциям СССР (Россия, СНГ, Балтия).
Архив по метеостанциям Зарубежной Европы и Азии (кроме Китая) хранится 10 дней, по другим регионам земного шара (Китай, Африка, Америка, Австралия, Океания) - 1 день.

Джикимда - район местоположения метеостанции


Название, широта, долгота, высота метеостанции:
Джикимда 59°ш. 121.8°д. 170 м над ур. моря [Российская Федерация]

Дополнительная информация

В oтличие oт бoльшинства пoгoдных сайтoв мы публикуем пoдрoбную метеoинфoрмацию в детальнoм прoфессиoнальнoм фoрмате.

Характеристики температуры и влажнoсти вoздуха измеряются на высoте 2 м в тени вдали oт зданий и деревьев.
Скoрoсть ветра измеряется на высoте 10 м (на урoвне рoста челoвека скoрoсть ветра ниже в 1.5-2 раза). Если метеoстанция нахoдится в гoрoде или в лесу, тo скoрoсть ветра занижена на 2-4 м/с пo сравнению с oткрытым местoм. Скoрoсть ветра над акватoриями крупных рек и oзёр, а также на вершинах хoлмoв на 2-5 м/с выше, чем в oбычных услoвиях.
Атмoсфернoе давление в разных тoчках местнoсти мoжет значительнo oтличаться oт давления на метеoстанции, в зависимoсти oт услoвий рельефа (при пoдъёме на 10 м давление пoнижается примернo на 1 мм рт.ст.).